Weather Roundup
Issued by NWS

Home | Current Version | Previous Version | Text Only | Print | Product List | Glossary On
Versions: 1 2 3 4 5 6 7 8 9 10 11 12 13 14 15 16 17 18 19 20 21 22 23 24 25 26 27 28 29 30 31 32 33 34 35 36 37 38 39 40 41 42 43 44 45 46 47 48 49 50
059
NZUS93 KARX 260410
HRRWXR

CURRENT HOURLY OBSERVATIONS ACROSS
MUCH OF THE UPPER MISSISSIPPI VALLEY
NATIONAL WEATHER SERVICE LA CROSSE WI
1100 PM CDT FRI MAY 25 2018


...SOUTHEAST MINNESOTA...


CITY           SKY/WX    TMP DP  RH WIND       PRES   REMARKS
ROCHESTER      FAIR      65  63  93 S14       29.77F
ROCHESTER/MAYO FAIR      66  61  85 S9G17     29.77S
WINONA         LGT RAIN  66  63  88 SW6G16    29.71F
AUSTIN         FAIR      66  61  82 SE7       29.77F
ALBERT LEA     FAIR      66  57  72 SE9       29.77S
DODGE CENTER   FAIR      64  61  88 SE12      29.77R
PRESTON        FAIR      62  59  89 SE7       29.80F
OWATONNA       FAIR      66  61  82 S12       29.75R
FARIBAULT      FAIR      64  63  94 CALM      29.74S
$$

...ELSEWHERE IN MINNESOTA...


CITY           SKY/WX    TMP DP  RH WIND       PRES   REMARKS
MINNEAPOLIS    FAIR      74  60  61 S7        29.71R
INTNL FALLS    MOCLDY    68  60  75 N5        29.60S
DULUTH         FAIR      70  60  70 CALM      29.66R
RED WING       FAIR      70  59  68 SE3       29.71S
REDWOOD FALLS  CLEAR     68  62  81 S8        29.70R
MANKATO        FAIR      68  62  81 S9        29.74R
WORTHINGTON    CLEAR     68  59  73 S5        29.77R
FAIRMONT       CLEAR     70  60  70 SE7       29.76R
$$

...SOUTHWEST WISCONSIN...


CITY           SKY/WX    TMP DP  RH WIND       PRES   REMARKS
LA CROSSE      LGT RAIN  69  62  78 W10G23    29.71F
PRAIRIE DU CHI MOCLDY    66  58  75 N9G17     29.82R
BOSCOBEL       FAIR      68  61  78 NW14G26   29.80R
LONE ROCK      FAIR      71  60  68 W6        29.69F
PLATTEVILLE    CLOUDY    70  61  73 SE9       29.74F
FORT MC COY    FAIR      64  61  89 SW5       29.75F
CAMP DOUGLAS   FAIR      67  65  94 W9        29.72F
MAUSTON-NEW LI FAIR      70  65  84 W8        29.72F
VIROQUA        FAIR      65  62  88 SW12      29.78F
WIS DELLS      FAIR      75  62  63 N5        29.73R
$$

...ELSEWHERE IN WISCONSIN...


CITY           SKY/WX    TMP DP  RH WIND       PRES   REMARKS
MILWAUKEE      FAIR      75  62  64 SW8       29.75F
MADISON        MOCLDY    75  63  66 S14       29.72F
GREEN BAY      FAIR      75  66  73 S7        29.71F
EAU CLAIRE     FAIR      64  61  90 SW6       29.71R
BLACK RVR FLS  FAIR      67  59  74 SW8       29.72S
MEDFORD        FAIR      64  61  91 CALM      29.73R
WAUSAU         NOT AVBL
WIS RAPIDS     FAIR      69  63  81 S5        29.71F
MARSHFIELD     FAIR      68  61  78 SW5       29.69F
RICE LAKE      FAIR      64  59  86 CALM      29.74R
$$

...NORTHEAST IOWA...


CITY           SKY/WX    TMP DP  RH WIND       PRES   REMARKS
WATERLOO       MOCLDY    67  61  81 NE14      29.80R
DUBUQUE        FAIR      67  59  75 S3        29.79F
DECORAH        MOCLDY    64  64 100 S6        29.79F
MASON CITY     CLOUDY    71  62  73 SE6       29.78F
CHARLES CITY   MOCLDY    64  61  88 S12       29.79R
OELWEIN        LGT RAIN  66  63  88 N12G24    29.83R
$$

...ELSEWHERE IN IOWA...


CITY           SKY/WX    TMP DP  RH WIND       PRES   REMARKS
DES MOINES     PTCLDY    78  65  63 S9        29.75R
IOWA CITY      MOCLDY    72  58  61 E9G17     29.82R
FORT DODGE     PTCLDY    74  59  59 E8        29.77S
MARSHALLTOWN   PTCLDY    73  69  87 S7        29.75S
CEDAR RAPIDS   FAIR      68  60  75 E10       29.81R
$$

...NORTHERN ILLINOIS...


CITY           SKY/WX    TMP DP  RH WIND       PRES   REMARKS
CHICAGO-OHARE  CLOUDY    77  64  64 SW10      29.79R
CHICAGO-MIDWAY CLOUDY    76  66  71 SW7       29.80R
MOLINE         MOCLDY    72  60  66 N15       29.85R
ROCKFORD       FAIR      69  64  84 W6        29.81S
PEORIA         FAIR      68  67  96 CALM      29.84R FOG
$$

NOTE: "FAIR" INDICATES FEW OR NO CLOUDS BELOW 12,000 FEET WITH NO
SIGNIFICANT WEATHER AND/OR OBSTRUCTIONS TO VISIBILITY. WIND
SPEEDS ARE IN MILES-PER-HOUR.




USA.gov is the U.S. government's official web portal to all federal, state and local government web resources and services.